Year,Month,Day,Hour,Minute,Value (Times are PST for temperature in C)
2007,04,23,00,00,8.40
2007,04,23,00,01,8.40
2007,04,23,00,02,8.40
2007,04,23,00,03,8.50
2007,04,23,00,04,8.50
2007,04,23,00,05,8.50
2007,04,23,00,06,8.40
2007,04,23,00,07,8.40
2007,04,23,00,08,8.30
2007,04,23,00,09,8.30
2007,04,23,00,10,8.20
2007,04,23,00,11,8.20
2007,04,23,00,12,8.20
2007,04,23,00,13,8.10
2007,04,23,00,14,8.00
2007,04,23,00,15,7.90
2007,04,23,00,16,7.90
2007,04,23,00,17,7.80
2007,04,23,00,18,7.70
2007,04,23,00,19,7.70
2007,04,23,00,20,7.60
2007,04,23,00,21,7.50
2007,04,23,00,22,7.30
2007,04,23,00,23,7.20
2007,04,23,00,24,7.20
2007,04,23,00,25,7.10
2007,04,23,00,26,7.00
2007,04,23,00,27,6.90
2007,04,23,00,28,6.90
2007,04,23,00,29,6.80
2007,04,23,00,30,6.80
2007,04,23,00,31,6.80
2007,04,23,00,32,6.70
2007,04,23,00,33,6.70
2007,04,23,00,34,6.70
2007,04,23,00,35,6.60
2007,04,23,00,36,6.60
2007,04,23,00,37,6.50
2007,04,23,00,38,6.50
2007,04,23,00,39,6.40
2007,04,23,00,40,6.40
2007,04,23,00,41,6.40
2007,04,23,00,42,6.30
2007,04,23,00,43,6.30
2007,04,23,00,44,6.20
2007,04,23,00,45,6.20
2007,04,23,00,46,6.10
2007,04,23,00,47,6.10
2007,04,23,00,48,6.00
2007,04,23,00,49,6.00
2007,04,23,00,50,5.90
2007,04,23,00,51,5.90
2007,04,23,00,52,5.90
2007,04,23,00,53,5.80
2007,04,23,00,54,5.80
2007,04,23,00,55,5.80
2007,04,23,00,56,5.80
2007,04,23,00,57,6.00
2007,04,23,00,58,6.10
2007,04,23,00,59,6.20
2007,04,23,01,00,6.40
2007,04,23,01,01,6.70
2007,04,23,01,02,6.80
2007,04,23,01,03,7.00
2007,04,23,01,04,7.00
2007,04,23,01,05,7.10
2007,04,23,01,06,7.10
2007,04,23,01,07,7.10
2007,04,23,01,08,7.10
2007,04,23,01,09,7.10
2007,04,23,01,10,7.20
2007,04,23,01,11,7.20
2007,04,23,01,12,7.30
2007,04,23,01,13,7.30
2007,04,23,01,14,7.30
2007,04,23,01,15,7.30
2007,04,23,01,16,7.30
2007,04,23,01,17,7.30
2007,04,23,01,18,7.30
2007,04,23,01,19,7.20
2007,04,23,01,20,7.20
2007,04,23,01,21,7.00
2007,04,23,01,22,6.90
2007,04,23,01,23,6.80
2007,04,23,01,24,6.70
2007,04,23,01,25,6.60
2007,04,23,01,26,6.50
2007,04,23,01,27,6.50
2007,04,23,01,28,6.40
2007,04,23,01,29,6.30
2007,04,23,01,30,6.20
2007,04,23,01,31,6.20
2007,04,23,01,32,6.10
2007,04,23,01,33,6.00
2007,04,23,01,34,6.00
2007,04,23,01,35,5.90
2007,04,23,01,36,5.90
2007,04,23,01,37,5.90
2007,04,23,01,38,5.90
2007,04,23,01,39,5.90
2007,04,23,01,40,5.90
2007,04,23,01,41,5.90
2007,04,23,01,42,5.90
2007,04,23,01,43,5.90
2007,04,23,01,44,5.80
2007,04,23,01,45,5.80
2007,04,23,01,46,5.80
2007,04,23,01,47,5.80
2007,04,23,01,48,5.80
2007,04,23,01,49,5.70
2007,04,23,01,50,5.70
2007,04,23,01,51,5.60
2007,04,23,01,52,5.50
2007,04,23,01,53,5.50
2007,04,23,01,54,5.40
2007,04,23,01,55,5.40
2007,04,23,01,56,5.50
2007,04,23,01,57,5.50
2007,04,23,01,58,5.50
2007,04,23,01,59,5.50
2007,04,23,02,00,5.50
2007,04,23,02,01,5.50
2007,04,23,02,02,5.40
2007,04,23,02,03,5.40
2007,04,23,02,04,5.30
2007,04,23,02,05,5.20
2007,04,23,02,06,5.20
2007,04,23,02,07,5.10
2007,04,23,02,08,5.10
2007,04,23,02,09,5.10
2007,04,23,02,10,5.00
2007,04,23,02,11,5.00
2007,04,23,02,12,5.00
2007,04,23,02,13,4.90
2007,04,23,02,14,4.90
2007,04,23,02,15,4.90
2007,04,23,02,16,4.90
2007,04,23,02,17,4.80
2007,04,23,02,18,4.80
2007,04,23,02,19,4.80
2007,04,23,02,20,4.70
2007,04,23,02,21,4.70
2007,04,23,02,22,4.60
2007,04,23,02,23,4.50
2007,04,23,02,24,4.50
2007,04,23,02,25,4.50
2007,04,23,02,26,4.60
2007,04,23,02,27,4.60
2007,04,23,02,28,4.70
2007,04,23,02,29,4.80
2007,04,23,02,30,4.90
2007,04,23,02,31,4.90
2007,04,23,02,32,4.90
2007,04,23,02,33,4.90
2007,04,23,02,34,4.90
2007,04,23,02,35,4.90
2007,04,23,02,36,5.00
2007,04,23,02,37,5.00
2007,04,23,02,38,5.10
2007,04,23,02,39,5.10
2007,04,23,02,40,5.10
2007,04,23,02,41,5.10
2007,04,23,02,42,5.10
2007,04,23,02,43,5.10
2007,04,23,02,44,5.10
2007,04,23,02,45,5.00
2007,04,23,02,46,4.90
2007,04,23,02,47,4.90
2007,04,23,02,48,4.80
2007,04,23,02,49,4.80
2007,04,23,02,50,4.80
2007,04,23,02,51,4.70
2007,04,23,02,52,4.70
2007,04,23,02,53,4.70
2007,04,23,02,54,4.70
2007,04,23,02,55,4.70
2007,04,23,02,56,4.60
2007,04,23,02,57,4.60
2007,04,23,02,58,4.50
2007,04,23,02,59,4.50
2007,04,23,03,00,4.40
2007,04,23,03,01,4.30
2007,04,23,03,02,4.30
2007,04,23,03,03,4.30
2007,04,23,03,04,4.30
2007,04,23,03,05,4.30
2007,04,23,03,06,4.30
2007,04,23,03,07,4.20
2007,04,23,03,08,4.20
2007,04,23,03,09,4.30
2007,04,23,03,10,4.30
2007,04,23,03,11,4.30
2007,04,23,03,12,4.30
2007,04,23,03,13,4.30
2007,04,23,03,14,4.30
2007,04,23,03,15,4.30
2007,04,23,03,16,4.30
2007,04,23,03,17,4.40
2007,04,23,03,18,4.40
2007,04,23,03,19,4.40
2007,04,23,03,20,4.50
2007,04,23,03,21,4.50
2007,04,23,03,22,4.60
2007,04,23,03,23,4.60
2007,04,23,03,24,4.60
2007,04,23,03,25,4.70
2007,04,23,03,26,4.70
2007,04,23,03,27,4.70
2007,04,23,03,28,4.70
2007,04,23,03,29,4.70
2007,04,23,03,30,4.70
2007,04,23,03,31,4.60
2007,04,23,03,32,4.60
2007,04,23,03,33,4.60
2007,04,23,03,34,4.50
2007,04,23,03,35,4.50
2007,04,23,03,36,4.50
2007,04,23,03,37,4.40
2007,04,23,03,38,4.40
2007,04,23,03,39,4.30
2007,04,23,03,40,4.30
2007,04,23,03,41,4.30
2007,04,23,03,42,4.20
2007,04,23,03,43,4.20
2007,04,23,03,44,4.20
2007,04,23,03,45,4.30
2007,04,23,03,46,4.30
2007,04,23,03,47,4.40
2007,04,23,03,48,4.40
2007,04,23,03,49,4.40
2007,04,23,03,50,4.50
2007,04,23,03,51,4.50
2007,04,23,03,52,4.50
2007,04,23,03,53,4.50
2007,04,23,03,54,4.50
2007,04,23,03,55,4.40
2007,04,23,03,56,4.40
2007,04,23,03,57,4.30
2007,04,23,03,58,4.30
2007,04,23,03,59,4.20
2007,04,23,04,00,4.20
2007,04,23,04,01,4.20
2007,04,23,04,02,4.10
2007,04,23,04,03,4.10
2007,04,23,04,04,4.10
2007,04,23,04,05,4.10
2007,04,23,04,06,4.00
2007,04,23,04,07,4.00
2007,04,23,04,08,3.90
2007,04,23,04,09,3.90
2007,04,23,04,10,3.80
2007,04,23,04,11,3.80
2007,04,23,04,12,3.80
2007,04,23,04,13,3.80
2007,04,23,04,14,3.70
2007,04,23,04,15,3.70
2007,04,23,04,16,3.70
2007,04,23,04,17,3.70
2007,04,23,04,18,3.70
2007,04,23,04,19,3.60
2007,04,23,04,20,3.60
2007,04,23,04,21,3.60
2007,04,23,04,22,3.60
2007,04,23,04,23,3.60
2007,04,23,04,24,3.60
2007,04,23,04,25,3.60
2007,04,23,04,26,3.60
2007,04,23,04,27,3.70
2007,04,23,04,28,3.70
2007,04,23,04,29,3.70
2007,04,23,04,30,3.70
2007,04,23,04,31,3.70
2007,04,23,04,32,3.80
2007,04,23,04,33,4.00
2007,04,23,04,34,4.10
2007,04,23,04,35,4.20
2007,04,23,04,36,4.30
2007,04,23,04,37,4.50
2007,04,23,04,38,4.70
2007,04,23,04,39,4.80
2007,04,23,04,40,5.00
2007,04,23,04,41,5.10
2007,04,23,04,42,5.20
2007,04,23,04,43,5.20
2007,04,23,04,44,5.20
2007,04,23,04,45,5.20
2007,04,23,04,46,5.20
2007,04,23,04,47,5.20
2007,04,23,04,48,5.10
2007,04,23,04,49,5.10
2007,04,23,04,50,5.00
2007,04,23,04,51,4.90
2007,04,23,04,52,4.90
2007,04,23,04,53,4.90
2007,04,23,04,54,4.90
2007,04,23,04,55,4.90
2007,04,23,04,56,4.90
2007,04,23,04,57,5.00
2007,04,23,04,58,5.00
2007,04,23,04,59,5.10
2007,04,23,05,00,5.10
2007,04,23,05,01,5.10
2007,04,23,05,02,5.20
2007,04,23,05,03,5.20
2007,04,23,05,04,5.20
2007,04,23,05,05,5.20
2007,04,23,05,06,5.20
2007,04,23,05,07,5.20
2007,04,23,05,08,5.20
2007,04,23,05,09,5.20
2007,04,23,05,10,5.20
2007,04,23,05,11,5.20
2007,04,23,05,12,5.30
2007,04,23,05,13,5.20
2007,04,23,05,14,5.20
2007,04,23,05,15,5.20
2007,04,23,05,16,5.20
2007,04,23,05,17,5.10
2007,04,23,05,18,5.10
2007,04,23,05,19,5.00
2007,04,23,05,20,4.90
2007,04,23,05,21,4.80
2007,04,23,05,22,4.80
2007,04,23,05,23,4.70
2007,04,23,05,24,4.70
2007,04,23,05,25,4.60
2007,04,23,05,26,4.60
2007,04,23,05,27,4.50
2007,04,23,05,28,4.50
2007,04,23,05,29,4.50
2007,04,23,05,30,4.50
2007,04,23,05,31,4.40
2007,04,23,05,32,4.40
2007,04,23,05,33,4.40
2007,04,23,05,34,4.30
2007,04,23,05,35,4.30
2007,04,23,05,36,4.30
2007,04,23,05,37,4.30
2007,04,23,05,38,4.30
2007,04,23,05,39,4.30
2007,04,23,05,40,4.30
2007,04,23,05,41,4.20
2007,04,23,05,42,4.20
2007,04,23,05,43,4.20
2007,04,23,05,44,4.10
2007,04,23,05,45,4.10
2007,04,23,05,46,4.00
2007,04,23,05,47,4.00
2007,04,23,05,48,3.90
2007,04,23,05,49,3.80
2007,04,23,05,50,3.80
2007,04,23,05,51,3.70
2007,04,23,05,52,3.70
2007,04,23,05,53,3.60
2007,04,23,05,54,3.60
2007,04,23,05,55,3.60
2007,04,23,05,56,3.50
2007,04,23,05,57,3.50
2007,04,23,05,58,3.40
2007,04,23,05,59,3.40
2007,04,23,06,00,3.40
2007,04,23,06,01,3.40
2007,04,23,06,02,3.50
2007,04,23,06,03,3.50
2007,04,23,06,04,3.60
2007,04,23,06,05,3.60
2007,04,23,06,06,3.70
2007,04,23,06,07,3.70
2007,04,23,06,08,3.80
2007,04,23,06,09,3.90
2007,04,23,06,10,3.90
2007,04,23,06,11,3.90
2007,04,23,06,12,4.00
2007,04,23,06,13,4.00
2007,04,23,06,14,4.00
2007,04,23,06,15,4.00
2007,04,23,06,16,4.00
2007,04,23,06,17,4.00
2007,04,23,06,18,4.00
2007,04,23,06,19,4.00
2007,04,23,06,20,4.00
2007,04,23,06,21,4.00
2007,04,23,06,22,4.00
2007,04,23,06,23,4.00
2007,04,23,06,24,4.10
2007,04,23,06,25,4.10
2007,04,23,06,26,4.10
2007,04,23,06,27,4.10
2007,04,23,06,28,4.10
2007,04,23,06,29,4.10
2007,04,23,06,30,4.10
2007,04,23,06,31,4.00
2007,04,23,06,32,4.00
2007,04,23,06,33,3.90
2007,04,23,06,34,3.90
2007,04,23,06,35,3.80
2007,04,23,06,36,3.80
2007,04,23,06,37,3.80
2007,04,23,06,38,3.70
2007,04,23,06,39,3.70
2007,04,23,06,40,3.60
2007,04,23,06,41,3.60
2007,04,23,06,42,3.60
2007,04,23,06,43,3.60
2007,04,23,06,44,3.60
2007,04,23,06,45,3.60
2007,04,23,06,46,3.60
2007,04,23,06,47,3.70
2007,04,23,06,48,3.70
2007,04,23,06,49,3.70
2007,04,23,06,50,3.80
2007,04,23,06,51,3.90
2007,04,23,06,52,4.10
2007,04,23,06,53,4.20
2007,04,23,06,54,4.40
2007,04,23,06,55,4.50
2007,04,23,06,56,4.60
2007,04,23,06,57,4.70
2007,04,23,06,58,4.80
2007,04,23,06,59,4.80
2007,04,23,07,00,4.90
2007,04,23,07,01,4.90
2007,04,23,07,02,5.00
2007,04,23,07,03,5.00
2007,04,23,07,04,5.10
2007,04,23,07,05,5.10
2007,04,23,07,06,5.20
2007,04,23,07,07,5.30
2007,04,23,07,08,5.30
2007,04,23,07,09,5.30
2007,04,23,07,10,5.30
2007,04,23,07,11,5.30
2007,04,23,07,12,5.40
2007,04,23,07,13,5.40
2007,04,23,07,14,5.40
2007,04,23,07,15,5.50
2007,04,23,07,16,5.50
2007,04,23,07,17,5.50
2007,04,23,07,18,5.60
2007,04,23,07,19,5.60
2007,04,23,07,20,5.70
2007,04,23,07,21,5.70
2007,04,23,07,22,5.70
2007,04,23,07,23,5.80
2007,04,23,07,24,5.90
2007,04,23,07,25,5.90
2007,04,23,07,26,6.00
2007,04,23,07,27,6.10
2007,04,23,07,28,6.10
2007,04,23,07,29,6.20
2007,04,23,07,30,6.30
2007,04,23,07,31,6.30
2007,04,23,07,32,6.40
2007,04,23,07,33,6.50
2007,04,23,07,34,6.50
2007,04,23,07,35,6.60
2007,04,23,07,36,6.70
2007,04,23,07,37,6.70
2007,04,23,07,38,6.80
2007,04,23,07,39,6.80
2007,04,23,07,40,6.80
2007,04,23,07,41,6.90
2007,04,23,07,42,7.00
2007,04,23,07,43,7.00
2007,04,23,07,44,7.10
2007,04,23,07,45,7.20
2007,04,23,07,46,7.20
2007,04,23,07,47,7.30
2007,04,23,07,48,7.40
2007,04,23,07,49,7.50
2007,04,23,07,50,7.60
2007,04,23,07,51,7.70
2007,04,23,07,52,7.80
2007,04,23,07,53,7.90
2007,04,23,07,54,8.00
2007,04,23,07,55,8.20
2007,04,23,07,56,8.30
2007,04,23,07,57,8.40
2007,04,23,07,58,8.50
2007,04,23,07,59,8.50
2007,04,23,08,00,8.60
2007,04,23,08,01,8.70
2007,04,23,08,02,8.80
2007,04,23,08,03,8.80
2007,04,23,08,04,8.90
2007,04,23,08,05,9.00
2007,04,23,08,06,9.00
2007,04,23,08,07,9.10
2007,04,23,08,08,9.10
2007,04,23,08,09,9.20
2007,04,23,08,10,9.30
2007,04,23,08,11,9.40
2007,04,23,08,12,9.50
2007,04,23,08,13,9.60
2007,04,23,08,14,9.60
2007,04,23,08,15,9.70
2007,04,23,08,16,9.70
2007,04,23,08,17,9.80
2007,04,23,08,18,9.80
2007,04,23,08,19,9.80
2007,04,23,08,20,9.80
2007,04,23,08,21,9.80
2007,04,23,08,22,9.80
2007,04,23,08,23,9.80
2007,04,23,08,24,9.90
2007,04,23,08,25,9.90
2007,04,23,08,26,9.90
2007,04,23,08,27,9.90
2007,04,23,08,28,9.90
2007,04,23,08,29,9.90
2007,04,23,08,30,9.90
2007,04,23,08,31,9.90
2007,04,23,08,32,9.90
2007,04,23,08,33,9.90
2007,04,23,08,34,9.90
2007,04,23,08,35,9.90
2007,04,23,08,36,9.90
2007,04,23,08,37,9.90
2007,04,23,08,38,9.80
2007,04,23,08,39,9.80
2007,04,23,08,40,9.80
2007,04,23,08,41,9.80
2007,04,23,08,42,9.80
2007,04,23,08,43,9.80
2007,04,23,08,44,9.80
2007,04,23,08,45,9.80
2007,04,23,08,46,9.80
2007,04,23,08,47,9.80
2007,04,23,08,48,9.90
2007,04,23,08,49,9.90
2007,04,23,08,50,9.90
2007,04,23,08,51,10.00
2007,04,23,08,52,10.00
2007,04,23,08,53,10.10
2007,04,23,08,54,10.10
2007,04,23,08,55,10.10
2007,04,23,08,56,10.10
2007,04,23,08,57,10.10
2007,04,23,08,58,10.10
2007,04,23,08,59,10.10
2007,04,23,09,00,10.20
2007,04,23,09,01,10.20
2007,04,23,09,02,10.30
2007,04,23,09,03,10.30
2007,04,23,09,04,10.40
2007,04,23,09,05,10.40
2007,04,23,09,06,10.50
2007,04,23,09,07,10.60
2007,04,23,09,08,10.70
2007,04,23,09,09,10.80
2007,04,23,09,10,10.80
2007,04,23,09,11,10.90
2007,04,23,09,12,10.90
2007,04,23,09,13,10.90
2007,04,23,09,14,10.90
2007,04,23,09,15,10.90
2007,04,23,09,16,10.80
2007,04,23,09,17,10.80
2007,04,23,09,18,10.80
2007,04,23,09,19,10.80
2007,04,23,09,20,10.80
2007,04,23,09,21,10.80
2007,04,23,09,22,10.80
2007,04,23,09,23,10.80
2007,04,23,09,24,10.80
2007,04,23,09,25,10.80
2007,04,23,09,26,10.80
2007,04,23,09,27,10.80
2007,04,23,09,28,10.80
2007,04,23,09,29,10.80
2007,04,23,09,30,10.80
2007,04,23,09,31,10.80
2007,04,23,09,32,10.90
2007,04,23,09,33,10.90
2007,04,23,09,34,10.90
2007,04,23,09,35,11.00
2007,04,23,09,36,11.00
2007,04,23,09,37,11.00
2007,04,23,09,38,11.00
2007,04,23,09,39,11.00
2007,04,23,09,40,11.00
2007,04,23,09,41,11.00
2007,04,23,09,42,11.00
2007,04,23,09,43,10.90
2007,04,23,09,44,10.90
2007,04,23,09,45,10.90
2007,04,23,09,46,10.90
2007,04,23,09,47,11.00
2007,04,23,09,48,11.00
2007,04,23,09,49,11.00
2007,04,23,09,50,11.10
2007,04,23,09,51,11.10
2007,04,23,09,52,11.10
2007,04,23,09,53,11.20
2007,04,23,09,54,11.20
2007,04,23,09,55,11.20
2007,04,23,09,56,11.20
2007,04,23,09,57,11.20
2007,04,23,09,58,11.10
2007,04,23,09,59,11.00
2007,04,23,10,00,11.00
2007,04,23,10,01,10.90
2007,04,23,10,02,10.90
2007,04,23,10,03,10.90
2007,04,23,10,04,10.90
2007,04,23,10,05,10.90
2007,04,23,10,06,10.90
2007,04,23,10,07,11.00
2007,04,23,10,08,11.00
2007,04,23,10,09,11.00
2007,04,23,10,10,11.00
2007,04,23,10,11,10.90
2007,04,23,10,12,10.90
2007,04,23,10,13,10.90
2007,04,23,10,14,10.80
2007,04,23,10,15,10.80
2007,04,23,10,16,10.70
2007,04,23,10,17,10.70
2007,04,23,10,18,10.70
2007,04,23,10,19,10.70
2007,04,23,10,20,10.60
2007,04,23,10,21,10.60
2007,04,23,10,22,10.60
2007,04,23,10,23,10.60
2007,04,23,10,24,10.70
2007,04,23,10,25,10.70
2007,04,23,10,26,10.70
2007,04,23,10,27,10.70
2007,04,23,10,28,10.70
2007,04,23,10,29,10.70
2007,04,23,10,30,10.60
2007,04,23,10,31,10.70
2007,04,23,10,32,10.70
2007,04,23,10,33,10.80
2007,04,23,10,34,10.80
2007,04,23,10,35,10.90
2007,04,23,10,36,10.90
2007,04,23,10,37,11.00
2007,04,23,10,38,11.10
2007,04,23,10,39,11.10
2007,04,23,10,40,11.20
2007,04,23,10,41,11.20
2007,04,23,10,42,11.20
2007,04,23,10,43,11.20
2007,04,23,10,44,11.30
2007,04,23,10,45,11.30
2007,04,23,10,46,11.30
2007,04,23,10,47,11.30
2007,04,23,10,48,11.30
2007,04,23,10,49,11.30
2007,04,23,10,50,11.20
2007,04,23,10,51,11.20
2007,04,23,10,52,11.20
2007,04,23,10,53,11.20
2007,04,23,10,54,11.20
2007,04,23,10,55,11.20
2007,04,23,10,56,11.20
2007,04,23,10,57,11.30
2007,04,23,10,58,11.30
2007,04,23,10,59,11.40
2007,04,23,11,00,11.50
2007,04,23,11,01,11.60
2007,04,23,11,02,11.70
2007,04,23,11,03,11.70
2007,04,23,11,04,11.80
2007,04,23,11,05,11.80
2007,04,23,11,06,11.80
2007,04,23,11,07,11.90
2007,04,23,11,08,11.90
2007,04,23,11,09,11.90
2007,04,23,11,10,11.90
2007,04,23,11,11,11.80
2007,04,23,11,12,11.80
2007,04,23,11,13,11.90
2007,04,23,11,14,12.00
2007,04,23,11,15,12.00
2007,04,23,11,16,12.00
2007,04,23,11,17,12.00
2007,04,23,11,18,12.00
2007,04,23,11,19,12.10
2007,04,23,11,20,12.10
2007,04,23,11,21,12.20
2007,04,23,11,22,12.20
2007,04,23,11,23,12.10
2007,04,23,11,24,12.10
2007,04,23,11,25,12.00
2007,04,23,11,26,11.90
2007,04,23,11,27,11.80
2007,04,23,11,28,11.80
2007,04,23,11,29,11.80
2007,04,23,11,30,11.80
2007,04,23,11,31,11.90
2007,04,23,11,32,11.90
2007,04,23,11,33,11.90
2007,04,23,11,34,11.90
2007,04,23,11,35,12.00
2007,04,23,11,36,12.10
2007,04,23,11,37,12.20
2007,04,23,11,38,12.30
2007,04,23,11,39,12.30
2007,04,23,11,40,12.30
2007,04,23,11,41,12.20
2007,04,23,11,42,12.10
2007,04,23,11,43,12.00
2007,04,23,11,44,11.90
2007,04,23,11,45,12.00
2007,04,23,11,46,12.00
2007,04,23,11,47,11.90
2007,04,23,11,48,12.00
2007,04,23,11,49,12.00
2007,04,23,11,50,12.10
2007,04,23,11,51,12.20
2007,04,23,11,52,12.20
2007,04,23,11,53,12.30
2007,04,23,11,54,12.40
2007,04,23,11,55,12.50
2007,04,23,11,56,12.60
2007,04,23,11,57,12.70
2007,04,23,11,58,12.70
2007,04,23,11,59,12.80
2007,04,23,12,00,12.80
2007,04,23,12,01,12.80
2007,04,23,12,02,12.80
2007,04,23,12,03,13.00
2007,04,23,12,04,13.10
2007,04,23,12,05,13.20
2007,04,23,12,06,13.20
2007,04,23,12,07,13.30
2007,04,23,12,08,13.30
2007,04,23,12,09,13.40
2007,04,23,12,10,13.40
2007,04,23,12,11,13.40
2007,04,23,12,12,13.40
2007,04,23,12,13,13.40
2007,04,23,12,14,13.30
2007,04,23,12,15,13.30
2007,04,23,12,16,13.40
2007,04,23,12,17,13.50
2007,04,23,12,18,13.70
2007,04,23,12,19,13.80
2007,04,23,12,20,13.80
2007,04,23,12,21,13.70
2007,04,23,12,22,13.70
2007,04,23,12,23,13.80
2007,04,23,12,24,13.80
2007,04,23,12,25,13.70
2007,04,23,12,26,13.70
2007,04,23,12,27,13.80
2007,04,23,12,28,13.90
2007,04,23,12,29,14.00
2007,04,23,12,30,14.10
2007,04,23,12,31,14.00
2007,04,23,12,32,13.90
2007,04,23,12,33,13.80
2007,04,23,12,34,13.80
2007,04,23,12,35,13.80
2007,04,23,12,36,13.80
2007,04,23,12,37,13.70
2007,04,23,12,38,13.70
2007,04,23,12,39,13.70
2007,04,23,12,40,13.70
2007,04,23,12,41,13.80
2007,04,23,12,42,14.00
2007,04,23,12,43,14.10
2007,04,23,12,44,14.30
2007,04,23,12,45,14.50
2007,04,23,12,46,14.70
2007,04,23,12,47,14.80
2007,04,23,12,48,14.80
2007,04,23,12,49,14.70
2007,04,23,12,50,14.90
2007,04,23,12,51,15.00
2007,04,23,12,52,15.10
2007,04,23,12,53,15.30
2007,04,23,12,54,15.40
2007,04,23,12,55,15.50
2007,04,23,12,56,15.40
2007,04,23,12,57,15.40
2007,04,23,12,58,15.30
2007,04,23,12,59,15.30
2007,04,23,13,00,15.40
2007,04,23,13,01,15.40
2007,04,23,13,02,15.50
2007,04,23,13,03,15.60
2007,04,23,13,04,15.60
2007,04,23,13,05,15.70
2007,04,23,13,06,15.70
2007,04,23,13,07,15.80
2007,04,23,13,08,16.00
2007,04,23,13,09,16.20
2007,04,23,13,10,16.30
2007,04,23,13,11,16.30
2007,04,23,13,12,16.30
2007,04,23,13,13,16.20
2007,04,23,13,14,16.10
2007,04,23,13,15,15.90
2007,04,23,13,16,15.80
2007,04,23,13,17,15.80
2007,04,23,13,18,15.70
2007,04,23,13,19,15.70
2007,04,23,13,20,15.70
2007,04,23,13,21,15.80
2007,04,23,13,22,15.80
2007,04,23,13,23,15.90
2007,04,23,13,24,16.00
2007,04,23,13,25,16.20
2007,04,23,13,26,16.20
2007,04,23,13,27,16.20
2007,04,23,13,28,16.30
2007,04,23,13,29,16.40
2007,04,23,13,30,16.40
2007,04,23,13,31,16.40
2007,04,23,13,32,16.40
2007,04,23,13,33,16.40
2007,04,23,13,34,16.30
2007,04,23,13,35,16.20
2007,04,23,13,36,16.10
2007,04,23,13,37,16.10
2007,04,23,13,38,15.90
2007,04,23,13,39,15.80
2007,04,23,13,40,15.80
2007,04,23,13,41,15.80
2007,04,23,13,42,15.80
2007,04,23,13,43,15.70
2007,04,23,13,44,15.50
2007,04,23,13,45,15.50
2007,04,23,13,46,15.50
2007,04,23,13,47,15.60
2007,04,23,13,48,15.70
2007,04,23,13,49,15.80
2007,04,23,13,50,15.80
2007,04,23,13,51,15.80
2007,04,23,13,52,15.70
2007,04,23,13,53,15.60
2007,04,23,13,54,15.50
2007,04,23,13,55,15.30
2007,04,23,13,56,15.20
2007,04,23,13,57,15.00
2007,04,23,13,58,15.00
2007,04,23,13,59,15.00
2007,04,23,14,00,15.00
2007,04,23,14,01,15.00
2007,04,23,14,02,14.90
2007,04,23,14,03,14.80
2007,04,23,14,04,14.60
2007,04,23,14,05,14.50
2007,04,23,14,06,14.40
2007,04,23,14,07,14.30
2007,04,23,14,08,14.20
2007,04,23,14,09,14.10
2007,04,23,14,10,14.00
2007,04,23,14,11,14.00
2007,04,23,14,12,13.90
2007,04,23,14,13,13.90
2007,04,23,14,14,13.90
2007,04,23,14,15,13.90
2007,04,23,14,16,14.00
2007,04,23,14,17,14.00
2007,04,23,14,18,14.00
2007,04,23,14,19,14.00
2007,04,23,14,20,13.90
2007,04,23,14,21,13.90
2007,04,23,14,22,13.90
2007,04,23,14,23,13.90
2007,04,23,14,24,13.90
2007,04,23,14,25,13.90
2007,04,23,14,26,13.90
2007,04,23,14,27,13.90
2007,04,23,14,28,13.90
2007,04,23,14,29,13.90
2007,04,23,14,30,13.90
2007,04,23,14,31,13.90
2007,04,23,14,32,13.90
2007,04,23,14,33,13.80
2007,04,23,14,34,13.70
2007,04,23,14,35,13.70
2007,04,23,14,36,13.70
2007,04,23,14,37,13.70
2007,04,23,14,38,13.70
2007,04,23,14,39,13.70
2007,04,23,14,40,13.70
2007,04,23,14,41,13.70
2007,04,23,14,42,13.70
2007,04,23,14,43,13.80
2007,04,23,14,44,13.80
2007,04,23,14,45,13.90
2007,04,23,14,46,13.90
2007,04,23,14,47,14.00
2007,04,23,14,48,14.20
2007,04,23,14,49,14.30
2007,04,23,14,50,14.30
2007,04,23,14,51,14.40
2007,04,23,14,52,14.50
2007,04,23,14,53,14.50
2007,04,23,14,54,14.60
2007,04,23,14,55,14.60
2007,04,23,14,56,14.80
2007,04,23,14,57,14.80
2007,04,23,14,58,15.00
2007,04,23,14,59,15.00
2007,04,23,15,00,15.00
2007,04,23,15,01,15.10
2007,04,23,15,02,15.20
2007,04,23,15,03,15.20
2007,04,23,15,04,15.30
2007,04,23,15,05,15.30
2007,04,23,15,06,15.30
2007,04,23,15,07,15.30
2007,04,23,15,08,15.20
2007,04,23,15,09,15.20
2007,04,23,15,10,15.10
2007,04,23,15,11,15.00
2007,04,23,15,12,15.00
2007,04,23,15,13,15.00
2007,04,23,15,14,15.10
2007,04,23,15,15,15.00
2007,04,23,15,16,15.00
2007,04,23,15,17,15.00
2007,04,23,15,18,14.80
2007,04,23,15,19,14.80
2007,04,23,15,20,14.70
2007,04,23,15,21,14.70
2007,04,23,15,22,14.70
2007,04,23,15,23,14.70
2007,04,23,15,24,14.70
2007,04,23,15,25,14.80
2007,04,23,15,26,14.80
2007,04,23,15,27,14.70
2007,04,23,15,28,14.70
2007,04,23,15,29,14.70
2007,04,23,15,30,14.90
2007,04,23,15,31,15.00
2007,04,23,15,32,15.10
2007,04,23,15,33,15.30
2007,04,23,15,34,15.50
2007,04,23,15,35,15.60
2007,04,23,15,36,15.70
2007,04,23,15,37,15.90
2007,04,23,15,38,15.90
2007,04,23,15,39,16.00
2007,04,23,15,40,16.00
2007,04,23,15,41,16.00
2007,04,23,15,42,15.90
2007,04,23,15,43,15.90
2007,04,23,15,44,15.90
2007,04,23,15,45,16.00
2007,04,23,15,46,16.00
2007,04,23,15,47,15.90
2007,04,23,15,48,16.00
2007,04,23,15,49,16.00
2007,04,23,15,50,15.90
2007,04,23,15,51,15.90
2007,04,23,15,52,15.90
2007,04,23,15,53,15.80
2007,04,23,15,54,15.80
2007,04,23,15,55,15.80
2007,04,23,15,56,15.80
2007,04,23,15,57,15.80
2007,04,23,15,58,15.80
2007,04,23,15,59,15.90
2007,04,23,16,00,15.90
2007,04,23,16,01,15.90
2007,04,23,16,02,15.90
2007,04,23,16,03,15.90
2007,04,23,16,04,15.80
2007,04,23,16,05,15.80
2007,04,23,16,06,15.70
2007,04,23,16,07,15.60
2007,04,23,16,08,15.60
2007,04,23,16,09,15.50
2007,04,23,16,10,15.50
2007,04,23,16,11,15.40
2007,04,23,16,12,15.40
2007,04,23,16,13,15.30
2007,04,23,16,14,15.30
2007,04,23,16,15,15.30
2007,04,23,16,16,15.30
2007,04,23,16,17,15.30
2007,04,23,16,18,15.20
2007,04,23,16,19,15.20
2007,04,23,16,20,15.20
2007,04,23,16,21,15.20
2007,04,23,16,22,15.10
2007,04,23,16,23,15.00
2007,04,23,16,24,15.00
2007,04,23,16,25,15.00
2007,04,23,16,26,15.00
2007,04,23,16,27,15.00
2007,04,23,16,28,15.00
2007,04,23,16,29,15.00
2007,04,23,16,30,15.00
2007,04,23,16,31,15.00
2007,04,23,16,32,15.00
2007,04,23,16,33,15.00
2007,04,23,16,34,15.00
2007,04,23,16,35,14.90
2007,04,23,16,36,14.80
2007,04,23,16,37,14.80
2007,04,23,16,38,14.70
2007,04,23,16,39,14.70
2007,04,23,16,40,14.60
2007,04,23,16,41,14.60
2007,04,23,16,42,14.60
2007,04,23,16,43,14.60
2007,04,23,16,44,14.60
2007,04,23,16,45,14.50
2007,04,23,16,46,14.40
2007,04,23,16,47,14.30
2007,04,23,16,48,14.30
2007,04,23,16,49,14.20
2007,04,23,16,50,14.20
2007,04,23,16,51,14.20
2007,04,23,16,52,14.20
2007,04,23,16,53,14.20
2007,04,23,16,54,14.20
2007,04,23,16,55,14.20
2007,04,23,16,56,14.30
2007,04,23,16,57,14.30
2007,04,23,16,58,14.30
2007,04,23,16,59,14.30
2007,04,23,17,00,14.30
2007,04,23,17,01,14.30
2007,04,23,17,02,14.30
2007,04,23,17,03,14.30
2007,04,23,17,04,14.30
2007,04,23,17,05,14.30
2007,04,23,17,06,14.30
2007,04,23,17,07,14.30
2007,04,23,17,08,14.30
2007,04,23,17,09,14.30
2007,04,23,17,10,14.40
2007,04,23,17,11,14.40
2007,04,23,17,12,14.40
2007,04,23,17,13,14.40
2007,04,23,17,14,14.40
2007,04,23,17,15,14.40
2007,04,23,17,16,14.30
2007,04,23,17,17,14.30
2007,04,23,17,18,14.30
2007,04,23,17,19,14.20
2007,04,23,17,20,14.20
2007,04,23,17,21,14.20
2007,04,23,17,22,14.20
2007,04,23,17,23,14.20
2007,04,23,17,24,14.20
2007,04,23,17,25,14.20
2007,04,23,17,26,14.20
2007,04,23,17,27,14.20
2007,04,23,17,28,14.30
2007,04,23,17,29,14.30
2007,04,23,17,30,14.30
2007,04,23,17,31,14.30
2007,04,23,17,32,14.30
2007,04,23,17,33,14.30
2007,04,23,17,34,14.30
2007,04,23,17,35,14.30
2007,04,23,17,36,14.30
2007,04,23,17,37,14.20
2007,04,23,17,38,14.20
2007,04,23,17,39,14.10
2007,04,23,17,40,14.10
2007,04,23,17,41,14.10
2007,04,23,17,42,14.10